TimeEDT,TemperatureF,Dew PointF,Humidity,Sea Level PressureIn,VisibilityMPH,Wind Direction,Wind SpeedMPH,Gust SpeedMPH,PrecipitationIn,Events,Conditions,WindDirDegrees,DateUTC
12:54 AM,57.9,55.9,93,30.22,10.0,Calm,Calm,-,N/A,,Clear,0,2013-06-21 04:54:00
1:54 AM,59.0,55.9,90,30.22,10.0,Calm,Calm,-,N/A,,Clear,0,2013-06-21 05:54:00
2:54 AM,55.9,55.0,97,30.22,9.0,Calm,Calm,-,N/A,,Clear,0,2013-06-21 06:54:00
3:42 AM,55.4,53.6,94,30.23,1.8,Calm,Calm,-,N/A,,Clear,0,2013-06-21 07:42:00
3:52 AM,55.4,53.6,94,30.22,3.0,Calm,Calm,-,N/A,,Clear,0,2013-06-21 07:52:00
3:54 AM,55.9,54.0,93,30.22,4.0,Calm,Calm,-,N/A,,Clear,0,2013-06-21 07:54:00
4:54 AM,55.9,54.0,93,30.22,4.0,Calm,Calm,-,N/A,,Clear,0,2013-06-21 08:54:00
5:46 AM,55.4,53.6,94,30.24,1.8,Calm,Calm,-,N/A,,Clear,0,2013-06-21 09:46:00
5:54 AM,55.0,54.0,96,30.23,2.0,Calm,Calm,-,N/A,,Clear,0,2013-06-21 09:54:00
5:59 AM,53.6,53.6,100,30.24,0.8,Calm,Calm,-,N/A,,Clear,0,2013-06-21 09:59:00
6:11 AM,53.6,53.6,100,30.24,2.0,Calm,Calm,-,N/A,,Clear,0,2013-06-21 10:11:00
6:19 AM,55.4,53.6,94,30.24,4.0,Calm,Calm,-,N/A,,Clear,0,2013-06-21 10:19:00
6:54 AM,57.0,55.0,93,30.23,6.0,Calm,Calm,-,0.01,,Clear,0,2013-06-21 10:54:00
7:54 AM,63.0,57.9,84,30.23,10.0,Calm,Calm,-,N/A,,Clear,0,2013-06-21 11:54:00
8:54 AM,68.0,60.1,76,30.23,10.0,Calm,Calm,-,N/A,,Clear,0,2013-06-21 12:54:00
9:54 AM,75.0,59.0,57,30.24,10.0,Calm,Calm,-,N/A,,Clear,0,2013-06-21 13:54:00
10:54 AM,79.0,60.1,52,30.23,10.0,SSE,4.6,-,N/A,,Clear,150,2013-06-21 14:54:00
11:54 AM,82.0,57.9,44,30.24,10.0,SSE,3.5,-,N/A,,Clear,160,2013-06-21 15:54:00
12:54 PM,84.0,60.1,44,30.24,10.0,Variable,5.8,-,N/A,,Clear,0,2013-06-21 16:54:00
1:54 PM,84.9,60.1,43,30.22,-9999.0,SE,6.9,-,N/A,,Clear,130,2013-06-21 17:54:00
2:54 PM,86.0,59.0,40,30.20,10.0,ESE,6.9,-,N/A,,Clear,120,2013-06-21 18:54:00
3:54 PM,86.0,57.9,38,30.19,10.0,SE,6.9,-,N/A,,Partly Cloudy,140,2013-06-21 19:54:00
4:54 PM,84.9,57.0,38,30.17,10.0,SSE,8.1,-,N/A,,Clear,160,2013-06-21 20:54:00
5:54 PM,84.9,57.0,38,30.15,10.0,SSE,6.9,-,N/A,,Clear,150,2013-06-21 21:54:00
6:54 PM,84.0,57.0,40,30.14,10.0,SSE,6.9,-,N/A,,Clear,150,2013-06-21 22:54:00
7:54 PM,82.0,60.1,47,30.14,10.0,SSE,4.6,-,N/A,,Clear,150,2013-06-21 23:54:00
8:54 PM,75.9,63.0,64,30.15,10.0,Calm,Calm,-,N/A,,Clear,0,2013-06-22 00:54:00
9:54 PM,72.0,66.0,81,30.15,10.0,Calm,Calm,-,N/A,,Clear,0,2013-06-22 01:54:00
10:54 PM,68.0,64.0,87,30.14,10.0,Calm,Calm,-,N/A,,Clear,0,2013-06-22 02:54:00
11:54 PM,66.0,63.0,90,30.14,10.0,NW,3.5,-,N/A,,Clear,320,2013-06-22 03:54:00